Location: Unspecified
(43.4680°N, 87.1740°E)
Time: 15:59:29
(UTC+00:00)

USA 116 - Pass Details

Date: 17 January 2020
Orbit: 405 x 834 km, 97.9° (Epoch: 18 November)

Event Time Altitude Azimuth Distance (km) Brightness Sun altitude
Exits shadow 12:34:52 35° 41° (NE) 728 3.9 -16.5°
Maximum altitude 12:35:58 55° 101° (E) 522 3.2 -16.7°
Drops below altitude 10° 12:39:03 10° 180° (S) 1,481 6.1 -17.3°
Sets 12:40:59 0° 185° (S) 2,321 7.1 -17.6°
